Hourly Data Report for October 20, 2013

All times are specified in Local Standard Time (LST). Add 1 hour to adjust for Daylight Saving Time where and when it is observed.

RANKIN INLET A
NUNAVUT

62°48'38.000" N
92°06'53.000" W
32.30 m
2303405
71083
YRT

Download Data

Hourly Data (October 2013)
Hourly Data Report for October 20, 2013
Temp Definition
°C
Dew Point Temp Definition
°C
Rel Hum Definition
%
Wind Dir Definition
10's deg

Wind Spd Definition
km/h
Visibility Definition
km
Stn Press Definition
kPa
Hmdx Definition


Wind Chill Definition


Weather Definition


TIME
00:00 Legend Double Dagger 1.1 -0.5 89 11 25 24.1 100.99     Snow
01:00 Legend Double Dagger 1.1 -0.7 88 10 22 24.1 101.04     Snow
02:00 Legend Double Dagger 0.9 -0.7 89 10 24 24.1 101.08     Snow
03:00 Legend Double Dagger 0.6 -0.6 92 11 26 24.1 101.12     Snow
04:00 Legend Double Dagger 0.5 -1.3 88 11 28 24.1 101.16     Snow
05:00 Legend Double Dagger -0.2 -1.2 93 8 21 24.1 101.20   -6 LegendNANA
06:00 Legend Double Dagger -0.4 -1.1 95 9 23 16.1 101.24   -6 Snow
07:00 Legend Double Dagger -1.2 -2.3 92 8 24 24.1 101.29   -7 Snow
08:00 Legend Double Dagger -1.8 -3.1 91 8 23 24.1 101.33   -8 Snow
09:00 Legend Double Dagger -2.0 -3.6 89 8 30 24.1 101.37   -9 Snow
10:00 Legend Double Dagger -1.8 -4.2 84 8 26 24.1 101.40   -8 Snow
11:00 Legend Double Dagger -1.5 -3.9 84 7 21 24.1 101.45   -7 Snow
12:00 Legend Double Dagger -0.9 -3.8 81 7 22 24.1 101.46   -7 Snow
13:00 Legend Double Dagger -1.0 -4.0 80 7 20 24.1 101.46   -7 Snow
14:00 Legend Double Dagger -1.2 -3.3 86 4 24 24.1 101.49   -7 Snow
15:00 Legend Double Dagger -1.7 -3.6 87 3 32 24.1 101.50   -9 Snow
16:00 Legend Double Dagger -2.0 -4.0 86 4 27 24.1 101.53   -9 Snow
17:00 Legend Double Dagger -2.3 -4.5 85 5 30 24.1 101.53   -9 Snow
18:00 Legend Double Dagger -2.8 -5.1 84 4 25 24.1 101.54   -10 Snow
19:00 Legend Double Dagger -3.6 -5.5 87 35 16 24.1 101.55   -9 Snow
20:00 Legend Double Dagger -5.8 -7.2 90 35 15 24.1 101.54   -12 LegendNANA
21:00 Legend Double Dagger -5.9 -7.3 90 36 15 24.1 101.51   -12 Mainly Clear
22:00 Legend Double Dagger -7.5 -8.9 90 35 21 24.1 101.48   -15 LegendNANA
23:00 Legend Double Dagger -6.5 -7.9 90 36 18 24.1 101.45   -13 LegendNANA

Notes on Data Quality.

Legend

  • E = Estimated
  • M = Missing
  • NA = Not Available
  • ‡ = Partner data that is not subject to review by the National Climate Archives
Date modified: